[[{"header":{"parameterUnit":"m.s-1","parameterCategory":1,"la1":30.2991,"la2":30.254,"lo1":-89.0895,"lo2":-89.0444,"dy":0.0017,"dx":0.0017,"nx":28,"ny":28,"refTime":"2023-09-13T09:00:00:Z","depth":0,"parameterNumber":2,"parameterNumberName":"U-component_of_WINDS"},"data":[0,0,0,0,0,0,0,0,0,0,0,0,0,0,0,0,0,0,0,0,0,0,0,0,0,0,0,0,0,0,0,0,0,0,0,0,0,0,0,0,0,0,0,0,0,0,0,0,0,0,0,0,0,0,0,0,0,0,1.1945,1.1946,0,1.1972,1.1973,1.1973,1.1961,1.1961,1.196,1.1959,1.1988,1.1989,1.199,0,0,0,0,0,0,0,0,0,0,0,0,0,1.1882,1.1883,1.1945,1.1946,1.1946,1.1972,1.1973,1.1973,1.1962,1.1961,1.196,1.1959,1.1987,1.1989,1.1991,0,0,0,0,0,0,0,0,0,0,0,0,0,1.1909,1.1884,1.1945,1.1943,1.1943,1.1972,1.1973,1.1973,1.1962,1.1961,1.196,1.1959,1.1987,1.1989,1.1991,1.2023,0,0,1.1997,1.1998,0,0,0,0,0,0,0,0,1.1908,1.1912,1.1943,1.1944,1.1944,1.1963,1.1961,1.199,1.1962,1.1955,1.1959,1.1958,1.198,1.1983,1.199,1.2025,1.2026,1.1997,1.1998,1.1999,1.2,0,0,0,0,0,0,0,1.1906,1.1911,1.1956,1.1944,1.1944,1.1941,1.1944,1.1966,1.1973,1.1955,1.1955,1.1958,1.198,1.1988,1.1991,1.2026,1.1997,1.1999,1.2,1.2001,1.2086,1.2087,0,0,0,0,0,0,1.1904,1.1909,1.1955,1.1957,1.1923,1.1943,1.1946,1.1958,1.1972,1.1974,1.1959,1.1957,1.1985,1.1988,1.1992,1.2029,1.1999,1.2001,1.2002,1.2085,1.2087,1.2088,0,0,0,0,0,0,1.1903,1.1908,1.1954,1.1933,1.1938,1.1945,1.1958,1.1959,1.1966,1.1975,1.1976,1.1966,1.1984,1.1989,1.2015,1.203,1.2002,1.2004,1.2084,1.2086,1.2087,1.2105,0,0,0,0,0,0,1.1901,1.1908,1.1921,1.1933,1.1939,1.1977,1.1959,1.196,1.197,1.1968,1.1982,1.1983,1.1984,1.2012,1.2017,1.2032,1.2006,1.2083,1.2085,1.2087,1.2103,1.2107,1.2111,0,0,0,0,0,1.1899,1.1926,1.1922,1.1927,1.1956,1.1978,1.1982,1.1982,1.1971,1.1984,1.1989,1.1983,1.2027,1.2015,1.202,1.2036,1.2082,1.2084,1.2087,1.2102,1.2106,1.211,0,0,0,0,0,0,1.1916,1.1927,1.1923,1.1954,1.1965,1.1976,1.1992,1.1988,1.2002,1.2,1.2,1.2003,1.203,1.2036,1.2021,1.2067,1.2053,1.2057,1.2063,1.2067,1.2071,1.2068,1.2007,0,0,0,0,0,1.1923,1.194,1.195,1.1976,1.1982,1.1986,1.1996,1.1995,1.2007,1.2011,1.2018,1.203,1.2046,1.2057,1.2073,1.2104,1.2106,1.2118,1.2121,1.2124,1.2127,1.2143,1.2147,1.2095,1.2095,1.2095,0,0,1.1938,1.1947,1.1958,1.198,1.1988,1.2006,1.199,1.201,1.2023,1.2014,1.2039,1.2045,1.2057,1.2086,1.2098,1.2091,1.2142,1.2127,1.213,1.2131,1.2145,1.215,1.2155,1.2097,1.2097,1.2096,0,0,1.1975,1.1984,1.2006,1.2014,1.2027,1.2029,1.2034,1.2046,1.2049,1.2073,1.2067,1.2082,1.2111,1.2119,1.2127,1.2165,1.2159,1.217,1.2189,1.2204,1.2208,1.2211,1.2224,1.2228,1.2173,1.2173,1.2173,0,1.1993,1.2019,1.2018,1.2038,1.2047,1.2039,1.2061,1.2069,1.2086,1.2093,1.2084,1.2119,1.2127,1.2156,1.2165,1.2173,1.2178,1.2169,1.2207,1.2211,1.2214,1.2226,1.2231,1.2174,1.2174,1.2174,1.2174,0,1.2039,1.2057,1.2074,1.2089,1.21,1.2121,1.2123,1.2134,1.2131,1.2134,1.2159,1.2168,1.2184,1.2191,1.219,1.222,1.2215,1.2207,1.2192,1.222,1.2231,1.2236,1.2176,1.2175,1.2175,1.2175,0,0,1.2088,1.2102,1.2108,1.2114,1.2126,1.214,1.216,1.2175,1.2184,1.2196,1.2212,1.2235,1.2227,1.2236,1.2235,1.2249,1.2276,1.2239,1.2239,1.2244,1.2308,1.2314,1.2319,1.2272,1.2273,1.2274,1.2307,0,1.2125,1.2159,1.2158,1.219,1.2206,1.2198,1.2215,1.2224,1.2226,1.224,1.2243,1.2259,1.2248,1.2253,1.2266,1.227,1.2288,1.2268,1.2286,1.2287,1.2283,1.2325,1.2331,1.2362,1.2311,1.2312,1.2312,0,1.2173,1.2185,1.2218,1.2226,1.2233,1.2248,1.2261,1.2274,1.2284,1.2285,1.2294,1.229,1.2309,1.2294,1.232,1.2305,1.2313,1.2316,1.2317,1.2318,1.2301,1.2326,1.2372,1.2376,1.2319,1.2319,1.2318,0,1.2204,1.2228,1.2251,1.2257,1.2267,1.2277,1.2282,1.229,1.2299,1.2311,1.2316,1.233,1.2337,1.2348,1.2347,1.2336,1.2373,1.2358,1.2373,1.2373,1.2382,1.2381,1.2428,1.2387,1.2387,1.2387,1.2387,0,1.2245,1.2265,1.2265,1.2278,1.23,1.2298,1.232,1.2324,1.2331,1.2344,1.2339,1.2352,1.2351,1.2364,1.2364,1.2384,1.2388,1.2389,1.2388,1.2389,1.2389,1.2394,1.2391,1.2388,1.2388,1.2388,1.2388,0,1.2283,1.2284,1.2308,1.2315,1.2317,1.2332,1.2338,1.2351,1.2352,1.237,1.2374,1.2376,1.2391,1.2392,1.2409,1.2409,1.2434,1.2431,1.243,1.243,1.2445,1.2443,1.2496,1.2502,1.2458,1.2459,1.2459,0,1.2309,1.2324,1.2332,1.2341,1.2346,1.236,1.2368,1.2366,1.2375,1.2386,1.2397,1.2411,1.2422,1.2446,1.2449,1.2462,1.2459,1.2477,1.2461,1.2461,1.2458,1.2457,1.2458,1.248,1.2481,1.2481,1.2481,0,1.2355,1.2353,1.2366,1.2377,1.2387,1.2397,1.2405,1.2413,1.2411,1.2422,1.2436,1.2445,1.2461,1.2475,1.2487,1.2492,1.2486,1.2486,1.249,1.2491,1.2489,1.2489,1.2438,1.2485,1.2485,1.2484,1.2484,1.2484,1.2387,1.2399,1.2406,1.2419,1.2425,1.2433,1.2445,1.2447,1.2459,1.2472,1.247,1.2486,1.2493,1.2509,1.2514,1.2526,1.252,1.2526,1.2528,1.2529,1.253,1.2487,1.2528,1.2528,1.2528,1.2528,1.2528,0,1.2431,1.2435,1.2447,1.2458,1.2468,1.2461,1.247,1.2479,1.2493,1.25,1.251,1.2526,1.2539,1.2542,1.2554,1.2563,1.2561,1.2566,1.2565,1.2566,1.2535,1.253,1.2568,1.2568,1.2568,1.2568,1.2568,1.2568,1.2455,1.2475,1.2474,1.2497,1.25,1.2515,1.252,1.2527,1.2532,1.255,1.256,1.2562,1.2568,1.258,1.2591,1.2591,1.2596,1.2602,1.2602,1.2573,1.2569,1.2565,1.256,1.2603,1.2603,1.2631,1.2632,1.2632]},{"header":{"parameterUnit":"m.s-1","parameterCategory":1,"la1":30.2991,"la2":30.254,"lo1":-89.0895,"lo2":-89.0444,"dy":0.0017,"dx":0.0017,"nx":28,"ny":28,"refTime":"2023-09-13T09:00:00:Z","depth":0,"parameterNumber":3,"parameterNumberName":"V-component_of_WINDS"},"data":[0,0,0,0,0,0,0,0,0,0,0,0,0,0,0,0,0,0,0,0,0,0,0,0,0,0,0,0,0,0,0,0,0,0,0,0,0,0,0,0,0,0,0,0,0,0,0,0,0,0,0,0,0,0,0,0,0,0,3.0862,3.0862,0,3.086,3.086,3.086,3.0831,3.083,3.0829,3.0829,3.0826,3.0827,3.0827,0,0,0,0,0,0,0,0,0,0,0,0,0,3.084,3.0841,3.0862,3.0862,3.0862,3.086,3.086,3.086,3.0831,3.083,3.0829,3.0828,3.0826,3.0827,3.0827,0,0,0,0,0,0,0,0,0,0,0,0,0,3.0845,3.0841,3.0862,3.0847,3.0846,3.086,3.086,3.086,3.0831,3.083,3.0829,3.0828,3.0826,3.0827,3.0828,3.0855,0,0,3.083,3.0831,0,0,0,0,0,0,0,0,3.0845,3.0846,3.0849,3.0848,3.0847,3.0844,3.0851,3.0858,3.0831,3.0837,3.0829,3.0827,3.0833,3.0833,3.0835,3.0855,3.0855,3.083,3.0831,3.0831,3.0832,0,0,0,0,0,0,0,3.0845,3.0846,3.0861,3.0849,3.0848,3.0841,3.084,3.0852,3.0841,3.0836,3.0834,3.0834,3.0832,3.0835,3.0835,3.0855,3.083,3.0831,3.0832,3.0832,3.0896,3.0897,0,0,0,0,0,0,3.0846,3.0846,3.0861,3.0861,3.0843,3.0842,3.0841,3.0846,3.0841,3.0839,3.0835,3.0833,3.0834,3.0834,3.0835,3.0866,3.0831,3.0832,3.0833,3.0895,3.0897,3.0898,0,0,0,0,0,0,3.0846,3.0848,3.0861,3.0853,3.0854,3.0843,3.0849,3.0847,3.0849,3.084,3.0838,3.084,3.0833,3.0834,3.085,3.0865,3.0833,3.0834,3.0894,3.0896,3.0897,3.0928,0,0,0,0,0,0,3.0846,3.0848,3.0858,3.0853,3.0854,3.0877,3.085,3.0848,3.0851,3.0848,3.0844,3.0842,3.0832,3.0849,3.0851,3.0866,3.0834,3.0892,3.0895,3.0897,3.0926,3.0931,3.0935,0,0,0,0,0,3.0845,3.0867,3.0859,3.0861,3.0867,3.0877,3.0878,3.0866,3.0852,3.0862,3.0857,3.0842,3.0864,3.0851,3.0853,3.0868,3.0891,3.0894,3.0897,3.0924,3.093,3.0935,0,0,0,0,0,0,3.0874,3.0866,3.0857,3.0879,3.0879,3.0873,3.0885,3.0873,3.0877,3.0874,3.0859,3.0859,3.0877,3.0875,3.0861,3.0895,3.0875,3.0878,3.0895,3.0901,3.0905,3.0905,3.0835,0,0,0,0,0,3.0883,3.0892,3.0885,3.0905,3.0906,3.0896,3.0899,3.089,3.089,3.089,3.0885,3.0885,3.0892,3.0897,3.0902,3.0926,3.0924,3.0938,3.0943,3.0947,3.0949,3.096,3.0966,3.0906,3.0906,3.0906,0,0,3.0902,3.0899,3.0905,3.0911,3.091,3.0919,3.0896,3.0907,3.0913,3.0891,3.0906,3.0903,3.0902,3.0922,3.0931,3.0921,3.0965,3.095,3.0953,3.0953,3.0963,3.0969,3.0974,3.0908,3.0908,3.0908,0,0,3.094,3.0939,3.0955,3.0955,3.0954,3.0947,3.0951,3.0947,3.0944,3.0959,3.0942,3.095,3.0963,3.0962,3.0964,3.1003,3.0989,3.1005,3.1029,3.104,3.1045,3.1049,3.1061,3.1066,3.1008,3.1008,3.1008,0,3.0963,3.0976,3.0965,3.0976,3.0979,3.096,3.0976,3.0976,3.0977,3.0979,3.0969,3.0983,3.0981,3.1,3.101,3.1013,3.1016,3.1004,3.1045,3.1049,3.1053,3.1064,3.1069,3.101,3.101,3.1009,3.1009,0,3.1004,3.1014,3.1027,3.1028,3.1032,3.1046,3.1036,3.1042,3.1033,3.1027,3.1043,3.104,3.1045,3.1049,3.104,3.1067,3.106,3.1048,3.1027,3.106,3.1071,3.1075,3.1012,3.1012,3.1011,3.1011,0,0,3.1059,3.1054,3.1059,3.1059,3.1057,3.1064,3.1078,3.1082,3.1087,3.1089,3.1098,3.111,3.1098,3.11,3.1091,3.1101,3.1131,3.1087,3.1087,3.1094,3.1158,3.1167,3.1172,3.1123,3.1123,3.1124,3.1158,0,3.1094,3.1115,3.1106,3.1128,3.1136,3.112,3.1131,3.1131,3.1126,3.1133,3.1128,3.1135,3.112,3.1121,3.113,3.1125,3.1143,3.1123,3.113,3.1131,3.1129,3.1178,3.1186,3.1218,3.1162,3.1163,3.1163,0,3.1137,3.1141,3.1164,3.1161,3.1164,3.1174,3.1177,3.1184,3.1184,3.118,3.1183,3.1172,3.1184,3.1166,3.1182,3.1168,3.1171,3.1169,3.117,3.1169,3.1148,3.1176,3.1228,3.1232,3.117,3.117,3.1169,0,3.1173,3.1184,3.1199,3.12,3.1197,3.1204,3.1203,3.1202,3.1205,3.1209,3.121,3.1215,3.1217,3.1221,3.1212,3.12,3.1229,3.121,3.1225,3.1225,3.123,3.123,3.1282,3.1236,3.1235,3.1235,3.1235,0,3.1212,3.1226,3.1215,3.1224,3.1239,3.1228,3.1244,3.1242,3.1241,3.1249,3.1235,3.1243,3.1231,3.1238,3.1231,3.1245,3.1246,3.1243,3.124,3.1243,3.1243,3.1243,3.124,3.1237,3.1236,3.1236,3.1236,0,3.1253,3.1246,3.1261,3.1257,3.1256,3.1268,3.1264,3.1272,3.1268,3.1278,3.128,3.1272,3.1279,3.1271,3.1278,3.1273,3.1291,3.1286,3.1291,3.1289,3.1304,3.1302,3.1356,3.1362,3.1314,3.1314,3.1315,0,3.1277,3.1288,3.1285,3.129,3.129,3.1297,3.1301,3.1291,3.1295,3.1296,3.1304,3.131,3.1314,3.1326,3.1321,3.1326,3.132,3.1339,3.132,3.1322,3.1318,3.1317,3.1317,3.1342,3.1342,3.1343,3.1343,0,3.1321,3.1317,3.1322,3.1327,3.1331,3.1334,3.1336,3.1341,3.1331,3.1336,3.1343,3.1347,3.1353,3.1359,3.1363,3.1362,3.135,3.135,3.1353,3.1354,3.1356,3.1354,3.1299,3.1348,3.1347,3.1347,3.1347,3.1347,3.1353,3.1361,3.1361,3.1367,3.1368,3.137,3.1377,3.1374,3.138,3.1384,3.1379,3.1387,3.1387,3.1391,3.1391,3.1397,3.1389,3.1395,3.1396,3.1397,3.1398,3.1357,3.1398,3.1398,3.1398,3.1398,3.1398,0,3.1394,3.1393,3.1399,3.1402,3.1408,3.1398,3.14,3.1405,3.1413,3.1414,3.1418,3.1426,3.1432,3.1428,3.1433,3.1439,3.1434,3.144,3.1439,3.1439,3.1406,3.1402,3.1444,3.1444,3.1444,3.1444,3.1444,3.1444,3.1416,3.1429,3.1425,3.1439,3.1438,3.1447,3.1448,3.145,3.1451,3.1461,3.1466,3.1463,3.1462,3.1467,3.1472,3.147,3.1472,3.148,3.1477,3.1446,3.1441,3.1436,3.1432,3.1481,3.1481,3.1508,3.1509,3.1509]}]]